Vorticity
nan nan nan nan nan nan nan nan nan nan nan nan nan nan nan nan nan nan nan nan nan nan nan nan nan nan nan nan nan nan nan nan nan
nan 8 6 5 5 5 4 4 3 4 3 3 3 6 8 5 6 6 5 9 6 4 3 3 5 6 6 6 7 7 6 5 nan
nan 7 5 5 5 4 4 4 4 4 5 3 4 9 9 5 6 6 6 9 6 6 5 5 5 6 7 7 7 7 7 7 nan
nan 5 5 6 5 4 4 3 4 4 4 3 5 11 8 5 6 5 7 8 6 6 6 6 5 6 6 6 6 6 6 7 nan
nan 4 6 5 5 5 5 4 3 4 5 3 5 7 4 6 6 5 10 8 5 6 6 5 5 6 6 6 6 6 6 7 nan
nan 7 9 6 6 6 5 4 4 4 5 5 3 3 5 6 5 9 11 6 5 5 6 5 5 6 6 6 6 6 6 6 nan
nan 8 7 6 6 6 6 5 4 3 4 5 4 7 8 6 6 9 9 6 5 5 5 5 5 5 5 5 5 6 6 6 nan
nan 6 5 7 6 5 7 6 6 6 5 6 6 7 6 6 7 10 9 6 5 5 5 5 5 5 5 5 5 5 5 5 nan
nan 7 7 6 7 7 6 6 7 7 6 6 6 7 7 6 8 11 9 7 6 5 5 5 5 5 5 5 6 5 5 5 nan
nan 7 7 7 7 7 7 7 7 7 7 7 7 8 9 6 7 11 10 7 7 5 5 5 5 5 5 5 6 5 5 5 nan
nan 7 7 6 7 7 8 7 7 8 8 8 9 9 9 7 6 7 11 10 7 6 5 5 5 5 5 5 5 5 5 5 nan
nan 6 7 7 8 7 7 7 7 8 8 9 9 10 8 7 7 7 8 11 11 8 6 5 6 5 5 5 4 5 5 5 nan
nan 7 7 8 8 8 7 8 8 9 8 9 9 7 8 8 8 6 7 7 10 12 9 9 7 6 5 5 4 5 5 5 nan
nan 7 8 8 7 8 8 8 9 9 9 8 9 8 8 8 8 8 7 7 6 9 13 12 10 9 7 5 5 5 5 5 nan
nan 7 9 8 7 7 8 9 7 8 9 10 8 8 7 8 9 9 8 8 8 8 9 9 13 13 10 7 6 6 5 4 nan
nan 6 7 8 9 8 6 8 8 6 8 7 9 11 10 9 8 9 9 8 9 8 8 8 9 13 15 11 8 7 6 5 nan
nan 7 8 6 8 9 8 6 7 10 7 4 7 8 9 14 12 8 9 9 9 10 9 8 7 7 10 13 14 13 8 6 nan
nan 9 9 8 7 7 8 9 6 8 7 7 3 8 10 7 10 12 10 10 8 9 9 9 8 8 10 10 13 14 10 9 nan
nan 8 9 8 9 9 8 8 6 7 5 7 8 7 12 6 6 9 11 12 10 8 8 10 9 8 8 9 7 10 13 13 nan
nan nan nan nan nan nan nan nan nan nan nan nan nan nan nan nan nan nan nan nan nan nan nan nan nan nan nan nan nan nan nan nan nan
CAPE
9 41 198 8 0 0 1 0 0 0 0 0 9 24 13 12 17 2 37 60 180 190 218 206 188 147 103 82 60 81 158 284 391
4 87 95 4 0 0 0 0 0 0 0 0 3 4 1 0 0 0 0 0 8 14 62 77 51 14 5 7 6 2 4 5 66
2 150 86 0 0 0 0 0 0 0 0 0 0 0 0 0 0 0 0 4 7 7 4 4 7 5 4 4 5 6 7 9 6
76 260 124 34 1 0 0 0 0 0 0 0 0 0 0 0 0 0 0 7 3 5 5 5 6 3 2 1 3 4 5 6 7
284 150 121 99 98 91 58 0 0 0 0 0 0 0 0 0 0 0 0 1 1 3 2 4 3 0 1 1 0 2 3 4 6
103 77 126 126 93 88 53 22 22 0 0 0 0 0 0 0 0 0 27 0 2 0 1 0 0 0 0 1 1 2 1 3 4
32 65 92 157 112 100 73 56 57 0 0 0 0 0 0 0 0 0 0 0 0 0 0 0 0 0 0 0 0 1 1 1 2
0 0 18 6 16 5 34 40 0 0 0 0 0 0 0 0 0 0 27 0 0 0 0 0 0 0 0 0 0 0 0 0 1
0 0 0 0 0 0 0 0 0 0 0 0 0 0 0 0 0 0 0 0 0 0 0 0 0 0 0 0 0 0 0 0 0
0 0 0 0 0 0 0 0 0 0 0 0 0 0 0 0 0 0 0 0 0 0 0 0 0 0 0 0 0 0 0 0 0
0 0 0 0 0 0 0 0 0 0 0 0 0 0 0 0 0 0 0 0 0 0 0 0 0 0 0 0 0 0 0 0 0
0 0 0 0 0 0 0 0 0 0 0 0 0 0 0 0 0 0 0 0 0 0 0 0 0 0 1 0 0 0 0 0 0
0 0 0 0 0 0 0 0 0 0 0 0 0 0 0 0 0 0 0 0 0 0 0 0 0 0 1 2 0 0 0 0 0
0 0 0 0 0 0 0 0 0 0 0 0 0 0 0 0 0 0 0 0 0 0 0 0 0 0 0 1 1 0 0 0 0
0 0 0 0 0 0 0 0 0 0 0 0 0 0 0 0 0 0 0 0 0 0 0 0 0 0 0 0 1 0 0 0 0
0 0 0 0 0 0 0 0 0 0 0 0 0 0 0 0 0 0 0 0 0 0 0 0 0 0 0 0 0 0 0 0 0
0 0 0 0 0 0 0 0 0 0 0 0 0 0 0 0 0 0 0 0 0 0 0 0 0 0 0 0 0 0 0 0 0
0 0 0 0 0 0 0 0 0 0 0 0 0 0 0 0 0 0 0 0 0 0 0 0 0 0 0 0 0 0 0 0 0
0 0 0 0 0 0 0 0 0 0 0 0 0 0 0 0 0 0 0 0 0 0 0 0 0 0 0 0 0 0 0 0 0
0 0 0 0 0 0 0 0 0 0 0 0 0 0 0 0 0 0 0 0 0 0 0 0 0 0 0 0 0 0 0 0 0